When you browse on this site, cookies collect data to enhance your experience and personalize the content and advertising you see.
Visit our Privacy Policy to learn more. By continuing to use the site, you agree to this use of cookies and data.
  • In Spain
  • List of Countries
  • For 7 days
  • Water Temperature
  • Weather Map
  • Weather Widgets
  • user-avatar
    Login

    Hourly Weather Kabwe

    Today, 21 October, Monday

    Time Temperature Precipitation Wind Pressure Humidity
    00:00 +23°C° 0 mm 1 mps 660 mmHg 26%
    01:00 +23°C° 0 mm 1 mps 660 mmHg 28%
    02:00 +23°C° 0 mm 1 mps 660 mmHg 30%
    03:00 +22°C° 0 mm 1 mps 660 mmHg 31%
    04:00 +22°C° 0 mm 1 mps 660 mmHg 32%
    05:00 +21°C° 0 mm 1 mps 660 mmHg 33%
    06:00 +24°C° 0 mm 2 mps 661 mmHg 30%
    07:00 +27°C° 0 mm 2 mps 662 mmHg 27%
    08:00 +30°C° 0 mm 2 mps 663 mmHg 24%
    09:00 +34°C° 0 mm 2 mps 663 mmHg 20%
    10:00 +37°C° 0 mm 2 mps 663 mmHg 17%
    11:00 +40°C° 0 mm 2 mps 663 mmHg 13%
    12:00 +40°C° 0 mm 2 mps 662 mmHg 12%
    13:00 +40°C° 0 mm 3 mps 661 mmHg 10%
    14:00 +41°C° 0 mm 4 mps 660 mmHg 9%
    15:00 +40°C° 0 mm 4 mps 660 mmHg 10%
    16:00 +38°C° 0 mm 4 mps 659 mmHg 10%
    17:00 +37°C° 0 mm 4 mps 658 mmHg 11%
    18:00 +35°C° 0 mm 3 mps 658 mmHg 14%
    19:00 +31°C° 0 mm 3 mps 659 mmHg 17%
    20:00 +28°C° 0 mm 2 mps 659 mmHg 20%
    21:00 +27°C° 0 mm 2 mps 659 mmHg 22%
    22:00 +26°C° 0 mm 2 mps 659 mmHg 25%
    23:00 +25°C° 0 mm 1 mps 659 mmHg 27%

    Tomorrow, 22 October, Tuesday

    Time Temperature Precipitation Wind Pressure Humidity
    00:00 +25°C° 0 mm 1 mps 658 mmHg 28%
    01:00 +24°C° 0 mm 2 mps 658 mmHg 29%
    02:00 +24°C° 0 mm 2 mps 658 mmHg 30%
    03:00 +23°C° 0 mm 2 mps 658 mmHg 32%
    04:00 +23°C° 0 mm 2 mps 658 mmHg 33%
    05:00 +21°C° 0 mm 2 mps 658 mmHg 35%
    06:00 +25°C° 0 mm 3 mps 660 mmHg 31%
    07:00 +28°C° 0 mm 3 mps 661 mmHg 27%
    08:00 +32°C° 0 mm 4 mps 662 mmHg 24%
    09:00 +35°C° 0 mm 3 mps 662 mmHg 20%
    10:00 +38°C° 0 mm 3 mps 662 mmHg 16%
    11:00 +40°C° 0 mm 3 mps 662 mmHg 12%
    12:00 +41°C° 0 mm 4 mps 661 mmHg 12%
    13:00 +41°C° 0 mm 4 mps 660 mmHg 11%
    14:00 +40°C° 0 mm 5 mps 659 mmHg 11%
    15:00 +40°C° 0 mm 5 mps 659 mmHg 11%
    16:00 +40°C° 0 mm 4 mps 658 mmHg 11%
    17:00 +40°C° 0 mm 4 mps 658 mmHg 12%
    18:00 +36°C° 0 mm 3 mps 658 mmHg 15%
    19:00 +33°C° 0 mm 3 mps 658 mmHg 18%
    20:00 +29°C° 0 mm 2 mps 658 mmHg 22%
    21:00 +29°C° 0 mm 3 mps 658 mmHg 22%
    22:00 +28°C° 0 mm 3 mps 658 mmHg 23%
    23:00 +28°C° 0 mm 3 mps 658 mmHg 23%

    Day after tomorrow, 23 October, Wednesday

    Time Temperature Precipitation Wind Pressure Humidity
    00:00 +28°C° 0 mm 3 mps 658 mmHg 24%
    01:00 +27°C° 0 mm 3 mps 658 mmHg 26%
    02:00 +27°C° 0 mm 3 mps 658 mmHg 27%
    03:00 +26°C° 0 mm 3 mps 658 mmHg 30%
    04:00 +25°C° 0 mm 3 mps 659 mmHg 34%
    05:00 +24°C° 0 mm 3 mps 659 mmHg 37%
    06:00 +26°C° 0 mm 3 mps 660 mmHg 36%
    07:00 +28°C° 0 mm 4 mps 661 mmHg 34%
    08:00 +32°C° 0 mm 5 mps 662 mmHg 33%
    09:00 +34°C° 0 mm 4 mps 662 mmHg 28%
    10:00 +36°C° 0 mm 4 mps 662 mmHg 24%
    11:00 +38°C° 0 mm 4 mps 662 mmHg 20%
    12:00 +38°C° 0 mm 3 mps 661 mmHg 18%
    13:00 +38°C° 0 mm 3 mps 660 mmHg 17%
    14:00 +38°C° 0 mm 3 mps 659 mmHg 16%
    15:00 +38°C° 0 mm 3 mps 659 mmHg 16%
    16:00 +38°C° 0 mm 3 mps 659 mmHg 16%
    17:00 +37°C° 0 mm 3 mps 658 mmHg 16%
    18:00 +35°C° 0 mm 2 mps 658 mmHg 19%
    19:00 +31°C° 0 mm 2 mps 658 mmHg 22%
    20:00 +28°C° 0 mm 2 mps 658 mmHg 24%
    21:00 +28°C° 0 mm 2 mps 658 mmHg 27%
    22:00 +27°C° 0 mm 2 mps 658 mmHg 30%
    23:00 +26°C° 0 mm 2 mps 658 mmHg 33%

    24 October, Thursday

    Time Temperature Precipitation Wind Pressure Humidity
    00:00 +25°C° 0 mm 2 mps 658 mmHg 35%
    01:00 +25°C° 0 mm 2 mps 658 mmHg 36%
    02:00 +24°C° 0 mm 2 mps 658 mmHg 38%
    03:00 +24°C° 0 mm 2 mps 659 mmHg 40%
    04:00 +23°C° 0 mm 2 mps 659 mmHg 43%
    05:00 +21°C° 0 mm 2 mps 659 mmHg 45%
    06:00 +25°C° 0 mm 2 mps 660 mmHg 41%
    07:00 +28°C° 0 mm 3 mps 661 mmHg 36%
    08:00 +30°C° 0 mm 4 mps 662 mmHg 32%
    09:00 +34°C° 0 mm 3 mps 662 mmHg 27%
    10:00 +37°C° 0 mm 3 mps 663 mmHg 22%
    11:00 +39°C° 0 mm 3 mps 663 mmHg 18%
    12:00 +40°C° 0 mm 3 mps 662 mmHg 16%
    13:00 +42°C° 0 mm 3 mps 661 mmHg 14%
    14:00 +42°C° 0 mm 4 mps 660 mmHg 12%
    15:00 +41°C° 0 mm 4 mps 660 mmHg 12%
    16:00 +40°C° 0 mm 4 mps 659 mmHg 12%
    17:00 +38°C° 0 mm 4 mps 659 mmHg 12%
    18:00 +36°C° 0 mm 3 mps 659 mmHg 15%
    19:00 +33°C° 0 mm 3 mps 659 mmHg 18%
    20:00 +29°C° 0 mm 2 mps 659 mmHg 21%
    21:00 +28°C° 0 mm 2 mps 659 mmHg 24%
    22:00 +27°C° 0 mm 2 mps 659 mmHg 26%
    23:00 +26°C° 0 mm 2 mps 659 mmHg 28%

    25 October, Friday

    Time Temperature Precipitation Wind Pressure Humidity
    00:00 +26°C° 0 mm 2 mps 659 mmHg 31%
    01:00 +26°C° 0 mm 2 mps 659 mmHg 34%
    02:00 +25°C° 0 mm 3 mps 659 mmHg 36%
    03:00 +25°C° 0 mm 3 mps 659 mmHg 40%
    04:00 +24°C° 0 mm 2 mps 659 mmHg 43%
    05:00 +23°C° 0 mm 2 mps 660 mmHg 47%
    06:00 +26°C° 0 mm 3 mps 661 mmHg 42%
    07:00 +28°C° 0 mm 4 mps 662 mmHg 38%
    08:00 +32°C° 0 mm 5 mps 663 mmHg 34%
    09:00 +34°C° 0 mm 4 mps 663 mmHg 29%
    10:00 +36°C° 0 mm 3 mps 663 mmHg 25%
    11:00 +39°C° 0 mm 3 mps 663 mmHg 20%
    12:00 +38°C° 0 mm 3 mps 662 mmHg 20%
    13:00 +38°C° 0 mm 2 mps 661 mmHg 20%
    14:00 +37°C° 0 mm 2 mps 660 mmHg 20%
    15:00 +37°C° 0 mm 2 mps 660 mmHg 20%
    16:00 +37°C° 0 mm 2 mps 660 mmHg 20%
    17:00 +36°C° 0 mm 2 mps 659 mmHg 20%
    18:00 +34°C° 0 mm 2 mps 659 mmHg 24%
    19:00 +31°C° 0 mm 2 mps 659 mmHg 27%
    20:00 +29°C° 0 mm 2 mps 660 mmHg 31%
    21:00 +28°C° 0 mm 2 mps 659 mmHg 34%
    22:00 +27°C° 0 mm 1 mps 659 mmHg 36%
    23:00 +26°C° 0 mm 1 mps 659 mmHg 39%

    26 October, Saturday

    Time Temperature Precipitation Wind Pressure Humidity
    00:00 +25°C° 0 mm 1 mps 659 mmHg 41%
    01:00 +24°C° 0 mm 1 mps 659 mmHg 42%
    02:00 +24°C° 0 mm 1 mps 658 mmHg 43%
    03:00 +23°C° 0 mm 1 mps 659 mmHg 46%
    04:00 +22°C° 0 mm 1 mps 659 mmHg 48%
    05:00 +22°C° 0 mm 1 mps 659 mmHg 50%
    06:00 +24°C° 0 mm 2 mps 660 mmHg 44%
    07:00 +27°C° 0 mm 2 mps 661 mmHg 38%
    08:00 +30°C° 0 mm 3 mps 662 mmHg 33%
    09:00 +33°C° 0 mm 3 mps 662 mmHg 27%
    10:00 +36°C° 0 mm 3 mps 662 mmHg 22%
    11:00 +39°C° 0 mm 3 mps 663 mmHg 17%
    12:00 +40°C° 0 mm 3 mps 662 mmHg 15%
    13:00 +40°C° 0 mm 3 mps 661 mmHg 14%
    14:00 +42°C° 0 mm 4 mps 660 mmHg 12%
    15:00 +41°C° 0 mm 4 mps 660 mmHg 12%
    16:00 +40°C° 0 mm 4 mps 659 mmHg 13%
    17:00 +38°C° 0 mm 4 mps 659 mmHg 13%
    18:00 +35°C° 0 mm 3 mps 658 mmHg 16%
    19:00 +32°C° 0 mm 2 mps 658 mmHg 19%
    20:00 +29°C° 0 mm 2 mps 658 mmHg 22%
    21:00 +28°C° 0 mm 2 mps 658 mmHg 24%
    22:00 +27°C° 0 mm 2 mps 658 mmHg 26%
    23:00 +26°C° 0 mm 2 mps 658 mmHg 28%

    27 October, Sunday

    Time Temperature Precipitation Wind Pressure Humidity
    00:00 +25°C° 0 mm 2 mps 658 mmHg 30%
    01:00 +25°C° 0 mm 2 mps 658 mmHg 32%
    02:00 +24°C° 0 mm 2 mps 657 mmHg 34%
    03:00 +23°C° 0 mm 2 mps 658 mmHg 35%
    04:00 +23°C° 0 mm 2 mps 658 mmHg 36%
    05:00 +21°C° 0 mm 2 mps 658 mmHg 37%
    06:00 +25°C° 0 mm 3 mps 659 mmHg 33%
    07:00 +27°C° 0 mm 3 mps 660 mmHg 28%
    08:00 +30°C° 0 mm 3 mps 661 mmHg 23%
    09:00 +34°C° 0 mm 3 mps 661 mmHg 19%
    10:00 +37°C° 0 mm 3 mps 662 mmHg 16%
    11:00 +40°C° 0 mm 3 mps 662 mmHg 12%
    12:00 +41°C° 0 mm 4 mps 661 mmHg 11%
    13:00 +42°C° 0 mm 5 mps 660 mmHg 10%
    14:00 +43°C° 0 mm 5 mps 660 mmHg 9%
    15:00 +42°C° 0 mm 5 mps 659 mmHg 10%
    16:00 +41°C° 0 mm 5 mps 658 mmHg 10%
    17:00 +40°C° 0 mm 5 mps 658 mmHg 11%
    18:00 +36°C° 0 mm 4 mps 658 mmHg 14%
    19:00 +33°C° 0 mm 3 mps 658 mmHg 17%
    20:00 +29°C° 0 mm 2 mps 658 mmHg 20%
    21:00 +28°C° 0 mm 2 mps 658 mmHg 22%
    22:00 +27°C° 0 mm 2 mps 658 mmHg 23%
    23:00 +26°C° 0 mm 2 mps 658 mmHg 25%
    Show more